RYR1TU LEGE-EPPO

Flight info

Callsign RYR1TU
Flight time 2h 18m
Altitude 38000
Route BGR L110 DIBER DCT SECON DCT ODIXU DCT ADITA DCT RAPED DCT PIGOS DCT EKSID DCT NOSTA DCT NOPMU DCT NOBMI DCT MALUG DCT UPEGU DCT LEGAZ DCT LAGAR DCT ARMEX DCT NILPU
Aircraft B738/M-SDE2E3FGHIRWXY/LB1

Departure

Time 2026-04-29 20:13
Airport Girona-Costa Brava Airport (LEGE)

Arrival

Time 2026-04-29 22:32
Airport Poznań-Ławica Airport (EPPO)
Time Latitude Longitude Altitude Speed Heading
2026-04-29 19:52 41.89846 2.76464 473 ft 0 kts 105°
2026-04-29 20:06 41.89848 2.76456 473 ft 0 kts 100°
2026-04-29 20:07 41.89850 2.76442 473 ft 2 kts 95°
2026-04-29 20:07 41.89849 2.76422 473 ft 2 kts 75°
2026-04-29 20:07 41.89843 2.76403 473 ft 2 kts 57°
2026-04-29 20:07 41.89833 2.76387 473 ft 2 kts 38°
2026-04-29 20:08 41.89820 2.76377 473 ft 1 kts 20°
2026-04-29 20:08 41.89817 2.76376 473 ft 0 kts 18°
2026-04-29 20:08 41.89811 2.76373 473 ft 0 kts 15°
2026-04-29 20:10 41.89814 2.76374 473 ft 0 kts 15°
2026-04-29 20:10 41.89822 2.76377 473 ft 2 kts 15°
2026-04-29 20:10 41.89853 2.76379 473 ft 6 kts 352°
2026-04-29 20:10 41.89885 2.76330 473 ft 9 kts 288°
2026-04-29 20:11 41.89902 2.76235 473 ft 10 kts 271°
2026-04-29 20:11 41.89844 2.76182 473 ft 12 kts 194°
2026-04-29 20:11 41.89752 2.76148 473 ft 14 kts 195°
2026-04-29 20:11 41.89648 2.76108 473 ft 14 kts 196°
2026-04-29 20:12 41.89568 2.76049 473 ft 11 kts 238°
2026-04-29 20:12 41.89529 2.75963 473 ft 10 kts 240°
2026-04-29 20:12 41.89517 2.75869 473 ft 10 kts 285°
2026-04-29 20:12 41.89556 2.75842 473 ft 7 kts 13°
2026-04-29 20:13 41.89714 2.75903 473 ft 54 kts 16°
2026-04-29 20:13 41.90068 2.76037 473 ft 99 kts 14°
2026-04-29 20:13 41.91296 2.76502 480 ft 169 kts 16°
2026-04-29 20:13 41.92438 2.76996 1071 ft 169 kts 26°
2026-04-29 20:14 41.93261 2.78129 1579 ft 177 kts 70°
2026-04-29 20:14 41.93316 2.79835 1993 ft 191 kts 104°
2026-04-29 20:14 41.93104 2.81695 2226 ft 209 kts 86°
2026-04-29 20:14 41.93283 2.83760 2364 ft 234 kts 83°
2026-04-29 20:15 41.93443 2.86044 2906 ft 244 kts 85°
2026-04-29 20:15 41.93550 2.88395 3402 ft 259 kts 86°
2026-04-29 20:15 41.93642 2.90860 4069 ft 265 kts 86°
2026-04-29 20:15 41.93733 2.93376 4767 ft 270 kts 86°
2026-04-29 20:16 41.93825 2.95960 5476 ft 274 kts 86°
2026-04-29 20:16 41.93918 2.98537 6166 ft 277 kts 86°
2026-04-29 20:16 41.94014 3.01178 6851 ft 281 kts 85°
2026-04-29 20:16 41.94111 3.03850 7522 ft 285 kts 85°
2026-04-29 20:17 41.94210 3.06543 8176 ft 289 kts 85°
2026-04-29 20:17 41.94310 3.09262 8814 ft 292 kts 84°
2026-04-29 20:17 41.94413 3.12071 9455 ft 296 kts 84°
2026-04-29 20:17 41.94518 3.14866 10067 ft 300 kts 84°
2026-04-29 20:18 41.94631 3.17780 10325 ft 318 kts 84°
2026-04-29 20:18 41.94768 3.20922 10390 ft 341 kts 83°
2026-04-29 20:18 41.95062 3.24148 10725 ft 352 kts 78°
2026-04-29 20:18 41.95468 3.27476 11239 ft 359 kts 78°
2026-04-29 20:19 41.95877 3.30842 11857 ft 362 kts 78°
2026-04-29 20:19 41.96283 3.34283 12459 ft 366 kts 78°
2026-04-29 20:19 41.96676 3.37684 13068 ft 370 kts 78°
2026-04-29 20:19 41.97080 3.41211 13680 ft 374 kts 78°
2026-04-29 20:20 41.97477 3.44709 14285 ft 377 kts 78°
2026-04-29 20:20 41.97876 3.48248 14883 ft 381 kts 78°
2026-04-29 20:20 41.98281 3.51843 15486 ft 385 kts 78°
2026-04-29 20:20 41.98552 3.54266 15875 ft 388 kts 78°
2026-04-29 20:21 41.99097 3.59140 16643 ft 393 kts 78°
2026-04-29 20:21 41.99507 3.62825 17198 ft 396 kts 78°
2026-04-29 20:21 41.99919 3.66534 17736 ft 400 kts 78°
2026-04-29 20:21 42.00341 3.70336 18269 ft 404 kts 78°
2026-04-29 20:22 42.00759 3.74120 18786 ft 407 kts 78°
2026-04-29 20:22 42.01186 3.77997 19296 ft 411 kts 78°
2026-04-29 20:22 42.01611 3.81871 19796 ft 414 kts 78°
2026-04-29 20:22 42.02037 3.85775 20278 ft 418 kts 78°
2026-04-29 20:23 42.02463 3.89687 20753 ft 421 kts 78°
2026-04-29 20:23 42.02894 3.93656 21216 ft 424 kts 78°
2026-04-29 20:23 42.03332 3.97704 21677 ft 427 kts 78°
2026-04-29 20:23 42.03764 4.01712 22120 ft 431 kts 78°
2026-04-29 20:24 42.04204 4.05807 22549 ft 434 kts 78°
2026-04-29 20:24 42.04639 4.09877 22975 ft 437 kts 78°
2026-04-29 20:24 42.05079 4.14001 23385 ft 440 kts 78°
2026-04-29 20:24 42.05518 4.18131 23790 ft 443 kts 78°
2026-04-29 20:25 42.05964 4.22346 24187 ft 446 kts 78°
2026-04-29 20:25 42.06408 4.26549 24581 ft 449 kts 78°
2026-04-29 20:25 42.06850 4.30762 24953 ft 452 kts 78°
2026-04-29 20:25 42.07404 4.35040 25306 ft 452 kts 71°
2026-04-29 20:26 42.08466 4.39070 25681 ft 449 kts 59°
2026-04-29 20:26 42.10157 4.42622 26005 ft 442 kts 43°
2026-04-29 20:26 42.12425 4.45440 26424 ft 435 kts 32°
2026-04-29 20:26 42.14925 4.47839 26724 ft 437 kts 29°
2026-04-29 20:27 42.17474 4.50160 27079 ft 439 kts 28°
2026-04-29 20:27 42.18340 4.50945 27200 ft 440 kts 28°
2026-04-29 20:27 42.22629 4.54838 27746 ft 444 kts 28°
2026-04-29 20:27 42.25238 4.57213 28084 ft 446 kts 28°
2026-04-29 20:28 42.27830 4.59576 28395 ft 448 kts 28°
2026-04-29 20:28 42.30477 4.61992 28704 ft 451 kts 28°
2026-04-29 20:28 42.33083 4.64375 29015 ft 453 kts 28°
2026-04-29 20:28 42.35748 4.66812 29280 ft 456 kts 29°
2026-04-29 20:29 42.38382 4.69226 29573 ft 458 kts 29°
2026-04-29 20:29 42.41082 4.71702 29838 ft 460 kts 29°
2026-04-29 20:29 42.43746 4.74149 30158 ft 461 kts 29°
2026-04-29 20:29 42.46448 4.76635 30515 ft 460 kts 29°
2026-04-29 20:30 42.49113 4.79090 30860 ft 460 kts 29°
2026-04-29 20:30 42.51805 4.81572 31228 ft 459 kts 28°
2026-04-29 20:30 42.54470 4.84034 31643 ft 457 kts 28°
2026-04-29 20:30 42.57124 4.86493 32047 ft 455 kts 29°
2026-04-29 20:31 42.59629 4.89178 32422 ft 460 kts 38°
2026-04-29 20:31 42.61734 4.92580 32821 ft 467 kts 50°
2026-04-29 20:31 42.63470 4.96390 33240 ft 467 kts 53°
2026-04-29 20:31 42.65114 5.00217 33595 ft 465 kts 53°
2026-04-29 20:32 42.66775 5.04087 33982 ft 462 kts 52°
2026-04-29 20:32 42.68417 5.07889 34306 ft 461 kts 52°
2026-04-29 20:32 42.70063 5.11679 34578 ft 460 kts 52°
2026-04-29 20:32 42.71158 5.14195 34764 ft 460 kts 52°
2026-04-29 20:33 42.73353 5.19236 35136 ft 458 kts 52°
2026-04-29 20:33 42.75015 5.23053 35384 ft 458 kts 52°
2026-04-29 20:33 42.76654 5.26821 35656 ft 457 kts 52°
2026-04-29 20:33 42.78283 5.30567 35902 ft 457 kts 52°
2026-04-29 20:34 42.79928 5.34350 36150 ft 456 kts 52°
2026-04-29 20:34 42.81548 5.38081 36404 ft 456 kts 52°
2026-04-29 20:34 42.82647 5.40613 36566 ft 456 kts 52°
2026-04-29 20:34 42.84261 5.44336 36816 ft 456 kts 52°
2026-04-29 20:35 42.85897 5.48114 37034 ft 456 kts 52°
2026-04-29 20:35 42.88054 5.53103 37337 ft 456 kts 52°
2026-04-29 20:35 42.89130 5.55594 37469 ft 456 kts 52°
2026-04-29 20:35 42.90751 5.59354 37622 ft 458 kts 52°
2026-04-29 20:36 42.92376 5.63129 37786 ft 459 kts 52°
2026-04-29 20:36 42.94004 5.66912 37926 ft 460 kts 52°
2026-04-29 20:36 42.96190 5.71995 38029 ft 463 kts 52°
2026-04-29 20:36 42.97820 5.75789 38018 ft 465 kts 52°
2026-04-29 20:37 43.00553 5.82170 38019 ft 464 kts 52°
2026-04-29 20:37 43.04379 5.91126 38020 ft 465 kts 52°
2026-04-29 20:38 43.07106 5.97520 38021 ft 467 kts 52°
2026-04-29 20:38 43.10938 6.06530 38020 ft 468 kts 52°
2026-04-29 20:39 43.13667 6.12971 38020 ft 467 kts 52°
2026-04-29 20:39 43.16914 6.20652 38020 ft 466 kts 52°
2026-04-29 20:40 43.20707 6.29651 38020 ft 466 kts 52°
2026-04-29 20:40 43.23951 6.37363 38020 ft 467 kts 52°
2026-04-29 20:41 43.26654 6.43812 38020 ft 467 kts 52°
2026-04-29 20:41 43.30438 6.52859 38020 ft 467 kts 52°
2026-04-29 20:42 43.33660 6.60587 38019 ft 466 kts 52°
2026-04-29 20:42 43.36346 6.67042 38019 ft 466 kts 53°
2026-04-29 20:43 43.40120 6.76126 38020 ft 467 kts 53°
2026-04-29 20:43 43.43321 6.83860 38020 ft 468 kts 53°
2026-04-29 20:44 43.46005 6.90360 38020 ft 468 kts 53°
2026-04-29 20:44 43.49760 6.99479 38020 ft 467 kts 53°
2026-04-29 20:45 43.52966 7.07270 38020 ft 466 kts 53°
2026-04-29 20:45 43.56163 7.15066 38019 ft 465 kts 54°
2026-04-29 20:46 43.59359 7.22892 38020 ft 464 kts 55°
2026-04-29 20:46 43.61984 7.29357 38019 ft 464 kts 55°
2026-04-29 20:47 43.65658 7.38422 38020 ft 464 kts 55°
2026-04-29 20:47 43.68296 7.44941 38020 ft 465 kts 55°
2026-04-29 20:48 43.71964 7.54034 38019 ft 464 kts 55°
2026-04-29 20:48 43.74603 7.60590 38020 ft 464 kts 55°
2026-04-29 20:49 43.78122 7.68140 38021 ft 459 kts 49°
2026-04-29 20:49 43.82901 7.76118 38020 ft 451 kts 37°
2026-04-29 20:50 43.86955 7.80819 38049 ft 446 kts 32°
2026-04-29 20:50 43.91948 7.86225 38069 ft 447 kts 32°
2026-04-29 20:51 43.96711 7.92136 38087 ft 453 kts 40°
2026-04-29 20:51 44.01159 7.98614 38100 ft 453 kts 40°
2026-04-29 20:52 44.05564 8.05083 38101 ft 453 kts 40°
2026-04-29 20:52 44.09980 8.11595 38101 ft 454 kts 40°
2026-04-29 20:53 44.14385 8.18111 38099 ft 454 kts 40°
2026-04-29 20:53 44.18784 8.24641 38085 ft 453 kts 40°
2026-04-29 20:54 44.25392 8.34478 38062 ft 453 kts 40°
2026-04-29 20:55 44.30513 8.42129 38047 ft 453 kts 40°
2026-04-29 20:55 44.34174 8.47610 38047 ft 453 kts 40°
2026-04-29 20:56 44.38547 8.54172 38046 ft 453 kts 40°
2026-04-29 20:56 44.42912 8.60738 38046 ft 453 kts 40°
2026-04-29 20:57 44.47301 8.67356 38047 ft 453 kts 41°
2026-04-29 20:57 44.50949 8.72863 38047 ft 454 kts 41°
2026-04-29 20:58 44.58051 8.83623 38047 ft 454 kts 41°
2026-04-29 20:59 44.62509 8.90400 38047 ft 454 kts 41°
2026-04-29 20:59 44.66909 8.97109 38046 ft 451 kts 41°
2026-04-29 21:00 44.71281 9.03791 38047 ft 447 kts 41°
2026-04-29 21:00 44.75646 9.10475 38047 ft 443 kts 41°
2026-04-29 21:01 44.79976 9.17119 38046 ft 441 kts 41°
2026-04-29 21:01 44.84307 9.23777 38064 ft 442 kts 41°
2026-04-29 21:02 44.88619 9.30423 38086 ft 443 kts 41°
2026-04-29 21:02 44.92955 9.37127 38108 ft 443 kts 41°
2026-04-29 21:03 44.97266 9.43807 38128 ft 443 kts 41°
2026-04-29 21:03 45.01593 9.50539 38127 ft 445 kts 40°
2026-04-29 21:04 45.05902 9.57257 38127 ft 446 kts 40°
2026-04-29 21:04 45.10244 9.64036 38117 ft 449 kts 40°
2026-04-29 21:05 45.14623 9.70884 38082 ft 451 kts 40°
2026-04-29 21:05 45.19019 9.77766 38073 ft 450 kts 40°
2026-04-29 21:06 45.23389 9.84642 38084 ft 448 kts 40°
2026-04-29 21:06 45.27729 9.91477 38090 ft 450 kts 40°
2026-04-29 21:07 45.32103 9.98383 38059 ft 451 kts 40°
2026-04-29 21:07 45.36432 10.05240 38023 ft 450 kts 40°
2026-04-29 21:08 45.40749 10.12098 38011 ft 449 kts 40°
2026-04-29 21:08 45.45034 10.18919 38050 ft 449 kts 40°
2026-04-29 21:09 45.49319 10.25755 38086 ft 450 kts 40°
2026-04-29 21:09 45.53564 10.32544 38122 ft 450 kts 40°
2026-04-29 21:10 45.57875 10.39455 38128 ft 452 kts 40°
2026-04-29 21:10 45.62177 10.46376 38128 ft 451 kts 40°
2026-04-29 21:11 45.66411 10.53417 38126 ft 454 kts 44°
2026-04-29 21:11 45.70331 10.60963 38132 ft 456 kts 45°
2026-04-29 21:12 45.74245 10.68547 38140 ft 456 kts 46°
2026-04-29 21:12 45.78184 10.76154 38149 ft 456 kts 46°
2026-04-29 21:13 45.82129 10.83776 38157 ft 456 kts 45°
2026-04-29 21:13 45.86030 10.91342 38155 ft 450 kts 45°
2026-04-29 21:14 45.89890 10.98837 38154 ft 443 kts 44°
2026-04-29 21:14 45.93712 11.06262 38155 ft 438 kts 44°
2026-04-29 21:15 45.97492 11.13598 38155 ft 438 kts 44°
2026-04-29 21:15 46.01264 11.20942 38155 ft 440 kts 44°
2026-04-29 21:16 46.05065 11.28370 38154 ft 440 kts 44°
2026-04-29 21:16 46.08857 11.35804 38154 ft 440 kts 44°
2026-04-29 21:17 46.12682 11.43323 38155 ft 440 kts 44°
2026-04-29 21:17 46.16454 11.50758 38154 ft 439 kts 44°
2026-04-29 21:18 46.20255 11.58271 38155 ft 439 kts 44°
2026-04-29 21:18 46.24059 11.65810 38154 ft 439 kts 45°
2026-04-29 21:19 46.27835 11.73313 38155 ft 440 kts 45°
2026-04-29 21:19 46.31609 11.80832 38165 ft 440 kts 45°
2026-04-29 21:20 46.35388 11.88382 38191 ft 441 kts 45°
2026-04-29 21:20 46.39185 11.95987 38217 ft 440 kts 45°
2026-04-29 21:21 46.42935 12.03520 38238 ft 441 kts 45°
2026-04-29 21:21 46.46713 12.11128 38236 ft 441 kts 45°
2026-04-29 21:22 46.50475 12.18726 38236 ft 441 kts 45°
2026-04-29 21:22 46.54225 12.26322 38236 ft 440 kts 45°
2026-04-29 21:23 46.54863 12.27616 38236 ft 440 kts 45°
2026-04-29 21:24 46.63529 12.45253 38236 ft 440 kts 45°
2026-04-29 21:24 46.67321 12.53006 38236 ft 440 kts 44°
2026-04-29 21:25 46.71603 12.59930 38233 ft 421 kts 29°
2026-04-29 21:25 46.74137 12.62435 38240 ft 410 kts 20°
2026-04-29 21:25 46.76778 12.64549 38238 ft 409 kts 19°
2026-04-29 21:26 46.82129 12.68644 38236 ft 410 kts 19°
2026-04-29 21:26 46.87526 12.72783 38236 ft 409 kts 19°
2026-04-29 21:27 46.92005 12.76246 38237 ft 409 kts 19°
2026-04-29 21:27 46.98170 12.81030 38247 ft 409 kts 18°
2026-04-29 21:28 47.03458 12.85139 38260 ft 409 kts 18°
2026-04-29 21:28 47.08775 12.89268 38276 ft 410 kts 17°
2026-04-29 21:29 47.14041 12.93366 38286 ft 410 kts 17°
2026-04-29 21:29 47.19329 12.97495 38290 ft 409 kts 18°
2026-04-29 21:30 47.24549 13.01586 38290 ft 407 kts 17°
2026-04-29 21:30 47.29650 13.05591 38290 ft 403 kts 17°
2026-04-29 21:31 47.34724 13.09584 38290 ft 400 kts 17°
2026-04-29 21:31 47.39760 13.13555 38290 ft 398 kts 17°
2026-04-29 21:32 47.44779 13.17520 38290 ft 395 kts 17°
2026-04-29 21:32 47.49747 13.21456 38290 ft 392 kts 18°
2026-04-29 21:33 47.54706 13.25391 38291 ft 392 kts 17°
2026-04-29 21:33 47.59672 13.29339 38290 ft 393 kts 17°
2026-04-29 21:34 47.64646 13.33302 38291 ft 394 kts 18°
2026-04-29 21:34 47.69574 13.37241 38290 ft 394 kts 18°
2026-04-29 21:35 47.74419 13.41120 38290 ft 393 kts 17°
2026-04-29 21:35 47.79379 13.45101 38290 ft 393 kts 18°
2026-04-29 21:36 47.84271 13.49034 38299 ft 393 kts 17°
2026-04-29 21:36 47.89131 13.52951 38308 ft 393 kts 18°
2026-04-29 21:37 47.93936 13.56831 38317 ft 393 kts 18°
2026-04-29 21:37 47.98692 13.60681 38326 ft 393 kts 18°
2026-04-29 21:38 48.03434 13.64527 38334 ft 393 kts 17°
2026-04-29 21:38 48.08191 13.68399 38344 ft 394 kts 18°
2026-04-29 21:39 48.12945 13.72278 38344 ft 394 kts 18°
2026-04-29 21:39 48.17704 13.76167 38344 ft 394 kts 18°
2026-04-29 21:40 48.22417 13.80026 38344 ft 393 kts 18°
2026-04-29 21:40 48.27172 13.83922 38344 ft 394 kts 18°
2026-04-29 21:41 48.31884 13.87793 38345 ft 394 kts 18°
2026-04-29 21:41 48.36648 13.91714 38344 ft 394 kts 18°
2026-04-29 21:42 48.41395 13.95631 38343 ft 394 kts 18°
2026-04-29 21:42 48.45356 13.98903 38344 ft 394 kts 18°
2026-04-29 21:43 48.50903 14.03500 38344 ft 394 kts 18°
2026-04-29 21:43 48.55743 14.07517 38344 ft 394 kts 18°
2026-04-29 21:44 48.60557 14.11521 38343 ft 394 kts 18°
2026-04-29 21:44 48.65294 14.15472 38344 ft 393 kts 18°
2026-04-29 21:45 48.70013 14.19416 38344 ft 393 kts 18°
2026-04-29 21:45 48.74852 14.23468 38344 ft 393 kts 18°
2026-04-29 21:46 48.79680 14.27521 38343 ft 393 kts 18°
2026-04-29 21:46 48.84584 14.31645 38344 ft 394 kts 18°
2026-04-29 21:47 48.89496 14.35787 38343 ft 393 kts 18°
2026-04-29 21:47 48.94443 14.39967 38344 ft 393 kts 18°
2026-04-29 21:48 48.99417 14.44185 38344 ft 394 kts 18°
2026-04-29 21:48 49.04722 14.47644 38343 ft 380 kts
2026-04-29 21:49 49.10172 14.48993 38345 ft 375 kts 357°
2026-04-29 21:49 49.15574 14.50014 38355 ft 377 kts 357°
2026-04-29 21:50 49.20977 14.51044 38383 ft 375 kts 357°
2026-04-29 21:50 49.26373 14.52094 38441 ft 377 kts 357°
2026-04-29 21:51 49.31773 14.53136 38452 ft 379 kts 357°
2026-04-29 21:51 49.39883 14.54720 38452 ft 377 kts 357°
2026-04-29 21:52 49.45315 14.55786 38452 ft 377 kts 357°
2026-04-29 21:52 49.50713 14.56846 38452 ft 377 kts 357°
2026-04-29 21:53 49.56146 14.57917 38452 ft 377 kts 357°
2026-04-29 21:53 49.61567 14.58988 38452 ft 377 kts 357°
2026-04-29 21:54 49.67009 14.60066 38452 ft 377 kts 357°
2026-04-29 21:54 49.72517 14.61160 38452 ft 377 kts 357°
2026-04-29 21:55 49.77943 14.62239 38452 ft 377 kts 357°
2026-04-29 21:55 49.83339 14.63315 38452 ft 377 kts 357°
2026-04-29 21:56 49.88746 14.64396 38452 ft 377 kts 357°
2026-04-29 21:56 49.94070 14.65467 38452 ft 377 kts 358°
2026-04-29 21:57 49.99430 14.66555 38452 ft 378 kts 358°
2026-04-29 21:57 50.04838 14.67649 38452 ft 378 kts 358°
2026-04-29 21:58 50.10274 14.68749 38453 ft 378 kts 358°
2026-04-29 21:58 50.15688 14.69844 38452 ft 379 kts 358°
2026-04-29 21:59 50.21128 14.70948 38452 ft 378 kts 358°
2026-04-29 21:59 50.26515 14.72042 38452 ft 378 kts 358°
2026-04-29 22:00 50.31931 14.73144 38452 ft 378 kts 358°
2026-04-29 22:00 50.37392 14.74258 38452 ft 378 kts 358°
2026-04-29 22:01 50.42879 14.75380 38452 ft 378 kts 358°
2026-04-29 22:01 50.48318 14.76494 38452 ft 378 kts 358°
2026-04-29 22:02 50.53742 14.77609 38452 ft 378 kts 358°
2026-04-29 22:02 50.59002 14.79231 38450 ft 391 kts
2026-04-29 22:03 50.61511 14.80914 38451 ft 406 kts 17°
2026-04-29 22:03 50.63911 14.83381 38455 ft 419 kts 25°
2026-04-29 22:03 50.66141 14.86487 38450 ft 435 kts 34°
2026-04-29 22:03 50.68014 14.90294 38453 ft 454 kts 46°
2026-04-29 22:04 50.69487 14.94767 38456 ft 469 kts 55°
2026-04-29 22:04 50.70690 14.99508 38453 ft 472 kts 57°
2026-04-29 22:04 50.73042 15.09374 38451 ft 467 kts 57°
2026-04-29 22:05 50.75389 15.19263 38451 ft 462 kts 56°
2026-04-29 22:06 50.79012 15.33971 38451 ft 458 kts 52°
2026-04-29 22:06 50.80549 15.38546 38453 ft 447 kts 46°
2026-04-29 22:06 50.82274 15.43000 38452 ft 444 kts 44°
2026-04-29 22:07 50.85712 15.51588 38451 ft 442 kts 44°
2026-04-29 22:07 50.89055 15.59833 38451 ft 442 kts 44°
2026-04-29 22:08 50.92395 15.68006 38452 ft 447 kts 46°
2026-04-29 22:08 50.95817 15.76387 38453 ft 457 kts 47°
2026-04-29 22:08 50.97527 15.80596 38186 ft 458 kts 48°
2026-04-29 22:09 50.99283 15.84934 37447 ft 459 kts 49°
2026-04-29 22:09 51.01085 15.89390 36765 ft 458 kts 49°
2026-04-29 22:09 51.02844 15.93758 36313 ft 452 kts 50°
2026-04-29 22:09 51.04591 15.98102 35765 ft 449 kts 50°
2026-04-29 22:10 51.06329 16.02450 35203 ft 446 kts 51°
2026-04-29 22:10 51.08064 16.06800 34657 ft 443 kts 50°
2026-04-29 22:10 51.09788 16.11126 34113 ft 440 kts 50°
2026-04-29 22:10 51.11471 16.15346 33582 ft 437 kts 50°
2026-04-29 22:11 51.13142 16.19533 33050 ft 434 kts 50°
2026-04-29 22:11 51.14791 16.23669 32512 ft 432 kts 51°
2026-04-29 22:11 51.16441 16.27811 31998 ft 429 kts 51°
2026-04-29 22:11 51.18076 16.31923 31464 ft 427 kts 51°
2026-04-29 22:12 51.19704 16.36024 30927 ft 426 kts 51°
2026-04-29 22:12 51.21298 16.40044 30407 ft 424 kts 51°
2026-04-29 22:12 51.22893 16.44074 29888 ft 422 kts 51°
2026-04-29 22:12 51.24509 16.48162 29364 ft 420 kts 52°
2026-04-29 22:13 51.26143 16.52303 28825 ft 418 kts 52°
2026-04-29 22:13 51.27748 16.56379 28302 ft 416 kts 52°
2026-04-29 22:13 51.29367 16.60494 27767 ft 414 kts 52°
2026-04-29 22:13 51.30943 16.64508 27249 ft 412 kts 52°
2026-04-29 22:14 51.32498 16.68470 26737 ft 410 kts 53°
2026-04-29 22:14 51.34034 16.72387 26225 ft 408 kts 54°
2026-04-29 22:14 51.35573 16.76320 25712 ft 406 kts 54°
2026-04-29 22:14 51.37121 16.80284 25203 ft 403 kts 54°
2026-04-29 22:15 51.38663 16.84232 24681 ft 401 kts 54°
2026-04-29 22:15 51.40189 16.88143 24171 ft 399 kts 55°
2026-04-29 22:15 51.41701 16.92030 23669 ft 397 kts 56°
2026-04-29 22:15 51.43193 16.95870 23169 ft 394 kts 56°
2026-04-29 22:16 51.44691 16.99739 22658 ft 392 kts 56°
2026-04-29 22:16 51.46163 17.03534 22163 ft 389 kts 55°
2026-04-29 22:16 51.47826 17.07086 21660 ft 384 kts 46°
2026-04-29 22:16 51.49869 17.09975 21170 ft 377 kts 30°
2026-04-29 22:17 51.52296 17.11885 20712 ft 369 kts 16°
2026-04-29 22:17 51.54827 17.12934 20220 ft 362 kts
2026-04-29 22:17 51.57374 17.13332 19713 ft 350 kts
2026-04-29 22:17 51.59786 17.13585 19274 ft 338 kts 360°
2026-04-29 22:18 51.62123 17.13825 18856 ft 327 kts 360°
2026-04-29 22:18 51.64409 17.14064 18433 ft 318 kts
2026-04-29 22:18 51.66587 17.14297 18015 ft 310 kts
2026-04-29 22:18 51.68737 17.14530 17630 ft 312 kts
2026-04-29 22:19 51.70937 17.14765 17219 ft 327 kts
2026-04-29 22:19 51.73209 17.15015 16777 ft 327 kts
2026-04-29 22:19 51.75485 17.15270 16355 ft 327 kts
2026-04-29 22:19 51.77774 17.15527 15929 ft 326 kts
2026-04-29 22:20 51.80035 17.15781 15509 ft 325 kts
2026-04-29 22:20 51.82303 17.16036 15087 ft 324 kts
2026-04-29 22:20 51.84563 17.16290 14667 ft 324 kts
2026-04-29 22:20 51.86785 17.16540 14248 ft 323 kts
2026-04-29 22:21 51.89032 17.16793 13817 ft 322 kts
2026-04-29 22:21 51.91266 17.17044 13399 ft 321 kts
2026-04-29 22:21 51.93527 17.17299 12978 ft 320 kts
2026-04-29 22:21 51.95759 17.17449 12561 ft 318 kts 356°
2026-04-29 22:22 51.97958 17.17290 12151 ft 316 kts 354°
2026-04-29 22:22 52.00159 17.17070 11738 ft 315 kts 354°
2026-04-29 22:22 52.02334 17.16857 11333 ft 313 kts 354°
2026-04-29 22:22 52.04511 17.16648 10923 ft 312 kts 354°
2026-04-29 22:23 52.06687 17.16441 10523 ft 310 kts 354°
2026-04-29 22:23 52.08810 17.16242 10326 ft 300 kts 354°
2026-04-29 22:23 52.10874 17.16048 9997 ft 297 kts 354°
2026-04-29 22:23 52.12961 17.15851 9630 ft 294 kts 354°
2026-04-29 22:24 52.14990 17.15704 9545 ft 283 kts 359°
2026-04-29 22:24 52.16936 17.16243 9272 ft 282 kts 14°
2026-04-29 22:24 52.18805 17.17221 8913 ft 282 kts 16°
2026-04-29 22:24 52.20665 17.18231 8581 ft 280 kts 16°
2026-04-29 22:25 52.22513 17.19220 8461 ft 269 kts 15°
2026-04-29 22:25 52.24251 17.20143 8336 ft 262 kts 15°
2026-04-29 22:25 52.25989 17.21058 7968 ft 256 kts 15°
2026-04-29 22:25 52.27642 17.21931 7828 ft 241 kts 15°
2026-04-29 22:26 52.29233 17.22767 7405 ft 241 kts 15°
2026-04-29 22:26 52.30890 17.23579 6645 ft 249 kts
2026-04-29 22:26 52.32623 17.23503 5848 ft 250 kts 339°
2026-04-29 22:26 52.34087 17.21920 5107 ft 247 kts 307°
2026-04-29 22:27 52.34858 17.19520 4866 ft 227 kts 289°
2026-04-29 22:27 52.35357 17.17106 4494 ft 219 kts 288°
2026-04-29 22:27 52.35819 17.14778 4215 ft 209 kts 287°
2026-04-29 22:27 52.36265 17.12517 3938 ft 207 kts 288°
2026-04-29 22:28 52.36710 17.10255 3639 ft 205 kts 288°
2026-04-29 22:28 52.37144 17.08048 3386 ft 200 kts 288°
2026-04-29 22:28 52.37567 17.05892 3063 ft 198 kts 288°
2026-04-29 22:28 52.37988 17.03746 2821 ft 190 kts 288°
2026-04-29 22:29 52.38252 17.02400 2623 ft 187 kts 288°
2026-04-29 22:29 52.38773 16.99740 2274 ft 177 kts 288°
2026-04-29 22:29 52.39141 16.97856 2056 ft 168 kts 288°
2026-04-29 22:29 52.39490 16.96066 1815 ft 157 kts 288°
2026-04-29 22:30 52.39814 16.94404 1628 ft 149 kts 288°
2026-04-29 22:30 52.40126 16.92806 1424 ft 149 kts 288°
2026-04-29 22:30 52.40443 16.91177 1214 ft 149 kts 288°
2026-04-29 22:30 52.40763 16.89534 1011 ft 149 kts 288°
2026-04-29 22:31 52.41079 16.87917 809 ft 149 kts 288°
2026-04-29 22:31 52.41388 16.86300 599 ft 148 kts 288°
2026-04-29 22:31 52.41698 16.84689 401 ft 146 kts 288°
2026-04-29 22:31 52.42004 16.83130 299 ft 128 kts 288°
2026-04-29 22:32 52.42197 16.82139 295 ft 57 kts 288°
2026-04-29 22:32 52.42295 16.81621 297 ft 29 kts 276°
2026-04-29 22:32 52.42287 16.81338 298 ft 19 kts 265°
2026-04-29 22:32 52.42267 16.81177 300 ft 11 kts 245°
2026-04-29 22:33 52.42215 16.81175 299 ft 8 kts 122°
2026-04-29 22:33 52.42194 16.81274 299 ft 10 kts 106°
2026-04-29 22:33 52.42169 16.81408 296 ft 14 kts 108°
2026-04-29 22:33 52.42132 16.81595 295 ft 18 kts 108°
2026-04-29 22:34 52.42090 16.81813 295 ft 20 kts 108°
2026-04-29 22:34 52.42043 16.82059 293 ft 23 kts 107°
2026-04-29 22:34 52.41995 16.82306 295 ft 20 kts 107°
2026-04-29 22:34 52.41954 16.82524 294 ft 18 kts 107°
2026-04-29 22:35 52.41919 16.82709 295 ft 15 kts 108°
2026-04-29 22:35 52.41889 16.82859 296 ft 12 kts 108°
2026-04-29 22:35 52.41832 16.82904 295 ft 11 kts 194°
2026-04-29 22:35 52.41742 16.82859 293 ft 14 kts 198°
2026-04-29 22:36 52.41660 16.82892 291 ft 12 kts 115°
2026-04-29 22:36 52.41641 16.83019 291 ft 10 kts 102°
2026-04-29 22:36 52.41627 16.83122 291 ft 7 kts 106°
2026-04-29 22:36 52.41597 16.83139 291 ft 4 kts 187°
2026-04-29 22:37 52.41575 16.83132 291 ft 2 kts 192°
2026-04-29 22:37 52.41564 16.83128 291 ft 0 kts 192°
2026-04-29 22:37 52.41563 16.83128 291 ft 0 kts 192°